BRUTUS Weather Reports


Display with metric or nautical units.
time (UTC)temp
F
wind
direction
speed
MPH
gust
MPH
rain 1hr
in
rain 24hr
in
rain mn
in
humidity
%
barometer
mb
20260508184920 66 360 4.0 0.0 0.00 0.00 0.00 52 1009.9
20260508184630 66 308 2.0 0.0 0.00 0.00 0.00 55 1009.9
20260508184404 66 320 3.0 0.0 0.00 0.00 0.00 55 1009.9
20260508184121 67 332 4.0 0.0 0.00 0.00 0.00 53 1009.9
20260508183817 67 303 3.0 0.0 0.00 0.00 0.00 53 1009.9
20260508183535 67 346 6.0 0.0 0.00 0.00 0.00 55 1009.9
20260508183240 66 347 6.0 0.0 0.00 0.00 0.00 53 1009.9
20260508182959 66 328 6.0 0.0 0.00 0.00 0.00 53 1009.9
20260508182718 66 337 6.0 0.0 0.00 0.00 0.00 51 1010.0
20260508182432 67 346 6.0 0.0 0.00 0.00 0.00 52 1010.0
20260508182147 67 335 5.0 0.0 0.00 0.00 0.00 52 1010.0
20260508181903 68 359 5.0 0.0 0.00 0.00 0.00 53 1010.0
20260508181630 67 305 5.0 0.0 0.00 0.00 0.00 53 1010.0
20260508181401 67 354 5.0 0.0 0.00 0.00 0.00 51 1010.0
20260508181122 67 342 4.0 0.0 0.00 0.00 0.00 55 1010.2
20260508180827 67 326 4.0 0.0 0.00 0.00 0.00 54 1010.3
20260508180550 67 326 4.0 0.0 0.00 0.00 0.00 54 1010.3
20260508180308 66 351 3.0 0.0 0.00 0.00 0.00 53 1010.4
20260508180026 67 33 3.0 0.0 0.00 0.00 0.00 54 1010.4
20260508175709 66 345 3.0 0.0 0.00 0.00 0.00 55 1010.5
20260508175427 66 344 4.0 0.0 0.00 0.00 0.00 55 1010.7
20260508175120 65 355 5.0 0.0 0.00 0.00 0.00 56 1010.8
20260508174840 65 1 5.0 0.0 0.00 0.00 0.00 55 1010.9
20260508174549 65 353 4.0 0.0 0.00 0.00 0.00 56 1011.0
20260508174311 64 322 4.0 0.0 0.00 0.00 0.00 56 1011.1
20260508174043 64 357 4.0 0.0 0.00 0.00 0.00 55 1011.1
20260508173809 64 108 4.0 0.0 0.00 0.00 0.00 54 1011.0
20260508173507 65 30 4.0 0.0 0.00 0.00 0.00 55 1011.2
20260508173207 65 314 3.0 0.0 0.00 0.00 0.00 55 1011.3
20260508172915 65 355 2.0 0.0 0.00 0.00 0.00 54 1011.4
20260508172629 65 337 2.0 0.0 0.00 0.00 0.00 56 1011.5
20260508172353 65 262 1.0 0.0 0.00 0.00 0.00 56 1011.4
20260508172101 65 6 1.0 0.0 0.00 0.00 0.00 54 1011.5
20260508171822 66 330 1.0 0.0 0.00 0.00 0.00 57 1011.7
20260508171556 65 34 2.0 0.0 0.00 0.00 0.00 59 1011.8
20260508171302 64 355 2.0 0.0 0.00 0.00 0.00 59 1011.8
20260508171001 63 2 3.0 0.0 0.00 0.00 0.00 57 1011.9
20260508170655 64 329 3.0 0.0 0.00 0.00 0.00 58 1011.9
20260508170407 63 338 3.0 0.0 0.00 0.00 0.00 58 1012.0
20260508170109 63 344 3.0 0.0 0.00 0.00 0.00 59 1012.2
20260508165825 62 76 4.0 0.0 0.00 0.00 0.00 59 1012.3
20260508165555 62 339 4.0 0.0 0.00 0.00 0.00 58 1012.3
20260508165306 62 28 4.0 0.0 0.00 0.00 0.00 58 1012.4
20260508165024 61 39 3.0 0.0 0.00 0.00 0.00 59 1012.4
20260508164741 61 15 3.0 0.0 0.00 0.00 0.00 59 1012.4
20260508164518 61 18 2.0 0.0 0.00 0.00 0.00 59 1012.5
20260508164233 61 22 3.0 0.0 0.00 0.00 0.00 60 1012.4
20260508163954 61 357 3.0 0.0 0.00 0.00 0.00 59 1012.5
20260508163709 61 40 3.0 0.0 0.00 0.00 0.00 59 1012.5
20260508163425 61 14 4.0 0.0 0.00 0.00 0.00 58 1012.4
20260508163148 61 1 4.0 0.0 0.00 0.00 0.00 58 1012.4
20260508162902 61 19 5.0 0.0 0.00 0.00 0.00 57 1012.4
20260508162616 62 345 5.0 0.0 0.00 0.00 0.00 58 1012.5
20260508162331 62 328 6.0 0.0 0.00 0.00 0.00 57 1012.4
20260508162033 62 345 5.0 0.0 0.00 0.00 0.00 57 1012.5
20260508161755 62 324 5.0 0.0 0.00 0.00 0.00 56 1012.5
20260508161524 62 347 5.0 0.0 0.00 0.00 0.00 56 1012.5
20260508161247 63 76 5.0 0.0 0.00 0.00 0.00 56 1012.5
20260508160945 63 42 6.0 0.0 0.00 0.00 0.00 58 1012.6
20260508160655 62 316 7.0 0.0 0.00 0.00 0.00 57 1012.4
20260508160403 62 43 7.0 0.0 0.00 0.00 0.00 58 1012.5
20260508160128 61 31 8.0 0.0 0.00 0.00 0.00 56 1012.5
20260508155847 61 287 8.0 0.0 0.00 0.00 0.00 56 1012.5
20260508155605 61 52 8.0 0.0 0.00 0.00 0.00 56 1012.6
20260508155333 61 38 8.0 0.0 0.00 0.00 0.00 56 1012.6
20260508155058 61 32 8.0 0.0 0.00 0.00 0.00 56 1012.6
20260508154754 61 60 8.0 0.0 0.00 0.00 0.00 57 1012.7
20260508154447 61 63 7.0 0.0 0.00 0.00 0.00 57 1012.7
20260508154206 60 347 7.0 0.0 0.00 0.00 0.00 58 1012.6
20260508153910 60 4 6.0 0.0 0.00 0.00 0.00 60 1012.7
20260508153623 59 19 5.0 0.0 0.00 0.00 0.00 60 1012.7
20260508153340 59 355 4.0 0.0 0.00 0.00 0.00 61 1012.8
20260508153043 59 355 4.0 0.0 0.00 0.00 0.00 61 1012.7
20260508152746 59 350 4.0 0.0 0.00 0.00 0.00 61 1012.8
20260508152520 58 27 4.0 0.0 0.00 0.00 0.00 62 1012.7
20260508152240 58 350 4.0 0.0 0.00 0.00 0.00 61 1012.7
20260508151952 58 22 4.0 0.0 0.00 0.00 0.00 63 1012.7
20260508151653 57 349 4.0 0.0 0.00 0.00 0.00 64 1012.7
20260508151402 57 340 4.0 0.0 0.00 0.00 0.00 63 1012.7
20260508151103 56 334 3.0 0.0 0.00 0.00 0.00 64 1012.7
20260508150830 56 12 3.0 0.0 0.00 0.00 0.00 64 1012.8
20260508150530 56 357 3.0 0.0 0.00 0.00 0.00 65 1012.7
20260508150239 56 330 3.0 0.0 0.00 0.00 0.00 65 1012.7
20260508150003 55 337 3.0 0.0 0.00 0.00 0.00 65 1012.7
20260508145714 55 330 4.0 0.0 0.00 0.00 0.00 65 1012.8
20260508145432 55 358 4.0 0.0 0.00 0.00 0.00 66 1012.9
20260508145127 55 337 4.0 0.0 0.00 0.00 0.00 65 1012.9
20260508144843 55 340 4.0 0.0 0.00 0.00 0.00 66 1013.0
20260508144550 55 311 3.0 0.0 0.00 0.00 0.00 66 1013.0
20260508144242 55 297 3.0 0.0 0.00 0.00 0.00 66 1012.9
20260508143943 54 349 3.0 0.0 0.00 0.00 0.00 66 1013.0
20260508143656 54 322 2.0 0.0 0.00 0.00 0.00 68 1012.9
20260508143430 54 340 3.0 0.0 0.00 0.00 0.00 68 1012.9
20260508143150 54 337 3.0 0.0 0.00 0.00 0.00 68 1013.0
20260508142912 54 341 3.0 0.0 0.00 0.00 0.00 68 1012.9
20260508142642 53 341 4.0 0.0 0.00 0.00 0.00 68 1012.9
20260508142413 53 4 3.0 0.0 0.00 0.00 0.00 69 1012.9
20260508142112 53 5 3.0 0.0 0.00 0.00 0.00 68 1013.0
20260508141814 53 351 3.0 0.0 0.00 0.00 0.00 69 1013.0
20260508141530 53 354 3.0 0.0 0.00 0.00 0.00 69 1013.0
20260508141246 53 316 3.0 0.0 0.00 0.00 0.00 69 1013.0
20260508140957 53 345 3.0 0.0 0.00 0.00 0.00 69 1013.1
20260508140654 53 343 4.0 0.0 0.00 0.00 0.00 69 1013.1
20260508140420 53 351 4.0 0.0 0.00 0.00 0.00 69 1013.2
20260508140134 53 343 4.0 0.0 0.00 0.00 0.00 69 1013.2
20260508135903 52 347 4.0 0.0 0.00 0.00 0.00 69 1013.1
20260508135606 52 338 3.0 0.0 0.00 0.00 0.00 68 1013.2
20260508135328 52 333 3.0 0.0 0.00 0.00 0.00 69 1013.0
20260508135047 52 10 3.0 0.0 0.00 0.00 0.00 69 1013.0
20260508134759 52 337 4.0 0.0 0.00 0.00 0.00 69 1013.0
20260508134503 52 335 4.0 0.0 0.00 0.00 0.00 69 1013.0
20260508134158 52 16 5.0 0.0 0.00 0.00 0.00 69 1013.0
20260508133914 52 330 3.0 0.0 0.00 0.00 0.00 70 1013.1
20260508133642 52 340 3.0 0.0 0.00 0.00 0.00 69 1013.1
20260508133350 52 350 3.0 0.0 0.00 0.00 0.00 69 1013.1
20260508133052 52 345 3.0 0.0 0.00 0.00 0.00 69 1013.1
20260508132811 52 345 4.0 0.0 0.00 0.00 0.00 69 1013.1
20260508132532 52 349 4.0 0.0 0.00 0.00 0.00 69 1013.1
20260508132309 52 330 4.0 0.0 0.00 0.00 0.00 69 1013.0
20260508132019 52 360 4.0 0.0 0.00 0.00 0.00 69 1013.0
20260508131719 52 337 4.0 0.0 0.00 0.00 0.00 69 1013.0
20260508131437 52 347 4.0 0.0 0.00 0.00 0.00 69 1013.0
20260508131149 52 344 4.0 0.0 0.00 0.00 0.00 68 1013.0
20260508130858 52 334 4.0 0.0 0.00 0.00 0.00 68 1013.1
20260508130612 52 338 4.0 0.0 0.00 0.00 0.00 68 1013.1
20260508130333 52 349 4.0 0.0 0.00 0.00 0.00 68 1013.0
20260508130058 52 329 3.0 0.0 0.00 0.00 0.00 68 1013.0
20260508125807 52 345 3.0 0.0 0.00 0.00 0.00 68 1013.0
20260508125541 52 357 2.0 0.0 0.00 0.00 0.00 69 1013.1
20260508125253 52 2 2.0 0.0 0.00 0.00 0.00 69 1013.0
20260508125011 52 309 3.0 0.0 0.00 0.00 0.00 69 1012.9
20260508124716 52 334 4.0 0.0 0.00 0.00 0.00 69 1012.9
20260508124436 52 326 4.0 0.0 0.00 0.00 0.00 69 1012.9
20260508124127 52 342 4.0 0.0 0.00 0.00 0.00 69 1012.9
20260508123839 51 318 4.0 0.0 0.00 0.00 0.00 69 1012.9
20260508123605 51 335 4.0 0.0 0.00 0.00 0.00 70 1013.0
20260508123329 51 330 4.0 0.0 0.00 0.00 0.00 69 1013.0
20260508123045 51 343 4.0 0.0 0.00 0.00 0.00 70 1013.0
20260508122756 51 360 4.0 0.0 0.00 0.00 0.00 70 1012.9
20260508122450 51 1 3.0 0.0 0.00 0.00 0.00 70 1012.9
20260508122219 50 318 2.0 0.0 0.00 0.00 0.00 71 1012.9
20260508121940 50 333 2.0 0.0 0.00 0.00 0.00 71 1012.8
20260508121713 50 332 2.0 0.0 0.00 0.00 0.00 71 1012.8
20260508121430 50 334 2.0 0.0 0.00 0.00 0.00 72 1012.9
20260508121135 50 335 2.0 0.0 0.00 0.00 0.00 72 1012.9
20260508120846 50 335 2.0 0.0 0.00 0.00 0.00 72 1012.8
20260508120602 49 332 2.0 0.0 0.00 0.00 0.00 72 1012.9
20260508120316 49 334 2.0 0.0 0.00 0.00 0.00 73 1012.9
20260508120029 49 324 2.0 0.0 0.00 0.00 0.00 73 1012.9
20260508115756 49 339 2.0 0.0 0.00 0.00 0.00 73 1012.8
20260508115510 49 342 3.0 0.0 0.00 0.00 0.00 73 1012.9
20260508115238 49 342 2.0 0.0 0.00 0.00 0.00 73 1012.9
20260508114943 49 338 2.0 0.0 0.00 0.00 0.00 73 1012.8
20260508114653 49 334 1.0 0.0 0.00 0.00 0.00 73 1012.8
20260508114401 49 351 0.0 0.0 0.00 0.00 0.00 73 1012.8
20260508114115 48 353 0.0 0.0 0.00 0.00 0.00 73 1012.9
20260508113822 48 339 0.0 0.0 0.00 0.00 0.00 74 1012.8
20260508113555 48 338 0.0 0.0 0.00 0.00 0.00 74 1012.8
20260508113312 48 316 0.0 0.0 0.00 0.00 0.00 74 1012.8
20260508113041 48 328 0.0 0.0 0.00 0.00 0.00 74 1012.7
20260508112736 48 331 0.0 0.0 0.00 0.00 0.00 74 1012.6
20260508112418 48 333 0.0 0.0 0.00 0.00 0.00 74 1012.5
20260508112134 48 333 0.0 0.0 0.00 0.00 0.00 74 1012.5
20260508111856 48 339 0.0 0.0 0.00 0.00 0.00 74 1012.5
20260508111601 48 332 0.0 0.0 0.00 0.00 0.00 74 1012.6
20260508111320 48 348 0.0 0.0 0.00 0.00 0.00 74 1012.6
20260508111045 48 337 1.0 0.0 0.00 0.00 0.00 74 1012.5
20260508110811 48 325 1.0 0.0 0.00 0.00 0.00 74 1012.5
20260508110526 47 325 1.0 0.0 0.00 0.00 0.00 74 1012.6
20260508110234 47 332 1.0 0.0 0.00 0.00 0.00 74 1012.6
20260508110004 47 326 1.0 0.0 0.00 0.00 0.00 74 1012.6
20260508105726 47 337 0.0 0.0 0.00 0.00 0.00 74 1012.6
20260508105500 47 337 0.0 0.0 0.00 0.00 0.00 75 1012.6
20260508105223 46 317 0.0 0.0 0.00 0.00 0.00 75 1012.6
20260508104918 46 315 0.0 0.0 0.00 0.00 0.00 75 1012.5
20260508104636 46 332 0.0 0.0 0.00 0.00 0.00 74 1012.6
20260508104343 46 353 0.0 0.0 0.00 0.00 0.00 75 1012.6
20260508104106 46 339 0.0 0.0 0.00 0.00 0.00 74 1012.6
20260508103822 46 339 0.0 0.0 0.00 0.00 0.00 74 1012.7
20260508103546 46 336 0.0 0.0 0.00 0.00 0.00 74 1012.6
20260508103301 46 330 0.0 0.0 0.00 0.00 0.00 74 1012.6
20260508103026 46 332 0.0 0.0 0.00 0.00 0.00 74 1012.6
20260508102725 46 335 0.0 0.0 0.00 0.00 0.00 74 1012.5
20260508102436 46 335 0.0 0.0 0.00 0.00 0.00 74 1012.5
20260508102143 46 6 0.0 0.0 0.00 0.00 0.00 74 1012.5
20260508101858 46 327 0.0 0.0 0.00 0.00 0.00 74 1012.5
20260508101613 46 354 0.0 0.0 0.00 0.00 0.00 74 1012.5
20260508101322 46 332 0.0 0.0 0.00 0.00 0.00 74 1012.4
20260508101035 46 331 0.0 0.0 0.00 0.00 0.00 75 1012.4
20260508100753 46 332 0.0 0.0 0.00 0.00 0.00 75 1012.4
20260508100457 46 332 0.0 0.0 0.00 0.00 0.00 75 1012.4
20260508100212 46 328 0.0 0.0 0.00 0.00 0.00 75 1012.3
20260508095928 46 328 0.0 0.0 0.00 0.00 0.00 75 1012.4
20260508095637 46 337 0.0 0.0 0.00 0.00 0.00 75 1012.4
20260508095336 46 337 0.0 0.0 0.00 0.00 0.00 75 1012.4
20260508095053 46 328 0.0 0.0 0.00 0.00 0.00 75 1012.4
20260508094745 46 328 0.0 0.0 0.00 0.00 0.00 75 1012.4
20260508094508 46 328 0.0 0.0 0.00 0.00 0.00 75 1012.4
20260508094225 46 328 0.0 0.0 0.00 0.00 0.00 75 1012.3
20260508093948 46 328 0.0 0.0 0.00 0.00 0.00 75 1012.4
20260508093703 46 327 0.0 0.0 0.00 0.00 0.00 75 1012.3
20260508093347 46 327 0.0 0.0 0.00 0.00 0.00 75 1012.3
20260508093042 46 327 0.0 0.0 0.00 0.00 0.00 75 1012.3
20260508092756 46 327 0.0 0.0 0.00 0.00 0.00 75 1012.3
20260508092507 46 327 0.0 0.0 0.00 0.00 0.00 75 1012.3
20260508092223 46 327 0.0 0.0 0.00 0.00 0.00 74 1012.3
20260508091932 46 326 0.0 0.0 0.00 0.00 0.00 74 1012.4
20260508091645 46 326 0.0 0.0 0.00 0.00 0.00 74 1012.4
20260508091332 47 326 0.0 0.0 0.00 0.00 0.00 74 1012.5
20260508091102 47 326 0.0 0.0 0.00 0.00 0.00 74 1012.4
20260508090819 47 326 0.0 0.0 0.00 0.00 0.00 74 1012.5
20260508090550 47 326 0.0 0.0 0.00 0.00 0.00 74 1012.5
20260508090309 47 325 0.0 0.0 0.00 0.00 0.00 74 1012.5
20260508090033 47 334 0.0 0.0 0.00 0.00 0.00 74 1012.5
20260508085738 47 327 0.0 0.0 0.00 0.00 0.00 74 1012.5
20260508085457 47 327 0.0 0.0 0.00 0.00 0.00 74 1012.5
20260508085228 47 327 0.0 0.0 0.00 0.00 0.00 74 1012.5
20260508084947 47 326 0.0 0.0 0.00 0.00 0.00 74 1012.5
20260508084700 47 326 0.0 0.0 0.00 0.00 0.00 74 1012.5
20260508084415 47 326 0.0 0.0 0.00 0.00 0.00 74 1012.6
20260508084145 47 326 0.0 0.0 0.00 0.00 0.00 74 1012.5
20260508083841 47 326 0.0 0.0 0.00 0.00 0.00 75 1012.5
20260508083600 47 325 0.0 0.0 0.00 0.00 0.00 75 1012.6
20260508083324 47 325 0.0 0.0 0.00 0.00 0.00 75 1012.5
20260508083034 47 324 0.0 0.0 0.00 0.00 0.00 75 1012.5
20260508082751 47 338 0.0 0.0 0.00 0.00 0.00 75 1012.5
20260508082506 47 334 0.0 0.0 0.00 0.00 0.00 76 1012.5
20260508082221 47 333 0.0 0.0 0.00 0.00 0.00 76 1012.5
20260508081934 47 334 0.0 0.0 0.00 0.00 0.00 76 1012.4
20260508081703 47 334 0.0 0.0 0.00 0.00 0.00 76 1012.5
20260508081429 47 333 0.0 0.0 0.00 0.00 0.00 76 1012.5
20260508081201 47 338 0.0 0.0 0.00 0.00 0.00 76 1012.5
20260508080916 47 338 0.0 0.0 0.00 0.00 0.00 76 1012.5
20260508080639 47 338 0.0 0.0 0.00 0.00 0.00 77 1012.5
20260508080412 47 338 0.0 0.0 0.00 0.00 0.00 77 1012.5
20260508080115 47 338 0.0 0.0 0.00 0.00 0.00 77 1012.5
20260508075839 47 338 0.0 0.0 0.00 0.00 0.00 78 1012.6
20260508075600 46 337 0.0 0.0 0.00 0.00 0.00 79 1012.5
20260508075317 46 11 0.0 0.0 0.00 0.00 0.00 79 1012.5
20260508074956 46 15 0.0 0.0 0.00 0.00 0.00 80 1012.6
20260508074711 46 15 0.0 0.0 0.00 0.00 0.00 80 1012.6
20260508074440 46 37 0.0 0.0 0.00 0.00 0.00 81 1012.6
20260508074208 46 37 0.0 0.0 0.00 0.00 0.00 82 1012.5
20260508073911 46 37 0.0 0.0 0.00 0.00 0.00 82 1012.5
20260508073627 46 38 0.0 0.0 0.00 0.00 0.00 83 1012.6
20260508073343 46 42 0.0 0.0 0.00 0.00 0.00 83 1012.6
20260508073102 45 42 0.0 0.0 0.00 0.00 0.00 84 1012.6
20260508072803 45 42 0.0 0.0 0.00 0.00 0.00 84 1012.6
20260508072524 45 42 0.0 0.0 0.00 0.00 0.00 84 1012.6
20260508072243 45 42 0.0 0.0 0.00 0.00 0.00 84 1012.6
20260508072016 45 42 0.0 0.0 0.00 0.00 0.00 84 1012.6
20260508071734 46 42 0.0 0.0 0.00 0.00 0.00 84 1012.6
20260508071440 46 42 0.0 0.0 0.00 0.00 0.00 84 1012.7
20260508071204 46 42 0.0 0.0 0.00 0.00 0.00 84 1012.7
20260508070925 46 42 0.0 0.0 0.00 0.00 0.00 84 1012.7
20260508070641 46 42 0.0 0.0 0.00 0.00 0.00 84 1012.7
20260508070403 46 42 0.0 0.0 0.00 0.00 0.00 84 1012.8
20260508070122 46 42 0.0 0.0 0.00 0.00 0.00 84 1012.8
20260508065837 46 42 0.0 0.0 0.00 0.00 0.00 84 1012.9
20260508065553 46 42 0.0 0.0 0.00 0.00 0.00 84 1012.9
20260508065259 47 42 0.0 0.0 0.00 0.00 0.00 84 1013.0
20260508065008 47 42 0.0 0.0 0.00 0.00 0.00 84 1013.0
20260508064726 47 42 0.0 0.0 0.00 0.00 0.00 83 1013.0
20260508064442 47 42 0.0 0.0 0.00 0.00 0.00 83 1012.9
20260508064125 47 42 0.0 0.0 0.00 0.00 0.00 83 1012.8
20260508063846 48 42 0.0 0.0 0.00 0.00 0.00 82 1012.9
20260508063605 48 42 0.0 0.0 0.00 0.00 0.00 82 1012.9
20260508063327 48 42 0.0 0.0 0.00 0.00 0.00 82 1013.0
20260508063034 48 42 0.0 0.0 0.00 0.00 0.00 82 1012.9
20260508062745 48 42 0.0 0.0 0.00 0.00 0.00 81 1012.9
20260508062441 48 42 0.0 0.0 0.00 0.00 0.00 81 1013.0
20260508062131 49 42 0.0 0.0 0.00 0.00 0.00 80 1012.9
20260508061849 49 42 0.0 0.0 0.00 0.00 0.00 80 1013.0
20260508061608 49 0.0 0.0 0.00 0.00 0.00 80 1013.0
20260508061324 49 0.0 0.0 0.00 0.00 0.00 79 1013.0
20260508061033 0 0.0 0.0 0.00 0.00 0.00 1013.1
20260508060806 0 0.0 0.0 0.00 0.00 0.00 1013.1
20260508060535 0 0.0 0.0 0.00 0.00 0.00 1013.2
20260508060308 0 0.0 0.0 0.00 0.00 0.00 1013.2
20260508060039 0 0.0 0.0 0.00 0.00 0.00 1013.2
20260508055852 0 0.0 0.0 0.00 0.00 0.00 1013.5
20260508055715 0 0.0 0.0 0.00 0.00 0.00 1013.7
20260508055524 0 0.0 0.0 0.00 0.00 0.00 1013.8
20260508055338 0 0.0 0.0 0.00 0.00 0.00 1013.7
20260508055146 0 0.0 0.0 0.00 0.00 0.00 1013.6
20260508055016 0 0.0 0.0 0.00 0.00 0.00 1013.7
20260508054826 0 0.0 0.0 0.00 0.00 0.00 1013.8
20260508054654 0 0.0 0.0 0.00 0.00 0.00 1013.8
20260508054510 0 0.0 0.0 0.00 0.00 0.00 1013.8
20260508054321 0 0.0 0.0 0.00 0.00 0.00 1013.9
20260508054127 0 0.0 0.0 0.00 0.00 0.00 1014.0
20260508053953 0 0.0 0.0 0.00 0.00 0.00 1014.0
20260508053804 0 0.0 0.0 0.00 0.00 0.00 1014.0
20260508053630 0 0.0 0.0 0.00 0.00 0.00 1014.0
20260508053457 0 0.0 0.0 0.00 0.00 0.00 1013.9
20260508053258 0 0.0 0.0 0.00 0.00 0.00 1013.9
20260508053128 0 0.0 0.0 0.00 0.00 0.00 1014.0
20260508052957 0 0.0 0.0 0.00 0.00 0.00 1013.9
20260508052746 0 0.0 0.0 0.00 0.00 0.00 1014.0
20260508052613 0 0.0 0.0 0.00 0.00 0.00 1014.0
20260508052440 0 0.0 0.0 0.00 0.00 0.00 1013.9
20260508052241 0 0.0 0.0 0.00 0.00 0.00 1013.8
20260508052107 0 0.0 0.0 0.00 0.00 0.00 1013.7
20260508051914 0 0.0 0.0 0.00 0.00 0.00 1013.5
20260508051724 0 0.0 0.0 0.00 0.00 0.00 1013.5
20260508051550 0 0.0 0.0 0.00 0.00 0.00 1013.4
20260508051417 0 0.0 0.0 0.00 0.00 0.00 1013.3
20260508051202 49 0.0 0.0 0.00 0.00 0.00 73 1013.2
20260508051010 49 0.0 0.0 0.00 0.00 0.00 73 1013.1
20260508050840 49 0.0 0.0 0.00 0.00 0.00 73 1013.1
20260508050653 49 0.0 0.0 0.00 0.00 0.00 73 1013.1
20260508050523 49 0.0 0.0 0.00 0.00 0.00 73 1013.1
20260508050353 49 357 0.0 0.0 0.00 0.00 0.00 73 1013.1
20260508050200 49 357 0.0 0.0 0.00 0.00 0.00 73 1013.0
20260508050030 49 357 0.0 0.0 0.00 0.00 0.00 73 1013.1
20260508045855 49 357 0.0 0.0 0.00 0.00 0.00 73 1013.1
20260508045703 49 357 0.0 0.0 0.00 0.00 0.00 73 1013.0
20260508045531 49 357 0.0 0.0 0.00 0.00 0.00 73 1013.1
20260508045358 49 357 0.0 0.0 0.00 0.00 0.00 72 1013.1
20260508045201 49 357 0.0 0.0 0.00 0.00 0.00 73 1013.1
20260508045029 49 357 0.0 0.0 0.00 0.00 0.00 73 1013.1
20260508044856 49 357 0.0 0.0 0.00 0.00 0.00 73 1013.2
20260508044707 49 357 0.0 0.0 0.00 0.00 0.00 73 1013.2
20260508044533 49 357 0.0 0.0 0.00 0.00 0.00 73 1013.1
20260508044400 49 357 0.0 0.0 0.00 0.00 0.00 73 1013.1
20260508044205 49 357 0.0 0.0 0.00 0.00 0.00 73 1013.1
20260508044032 49 357 0.0 0.0 0.00 0.00 0.00 73 1013.1
20260508043859 49 357 0.0 0.0 0.00 0.00 0.00 73 1013.1
20260508043652 49 357 0.0 0.0 0.00 0.00 0.00 73 1013.1
20260508043518 50 357 0.0 0.0 0.00 0.00 0.00 73 1013.1
20260508043348 49 357 0.0 0.0 0.00 0.00 0.00 73 1013.1
20260508043149 49 357 0.0 0.0 0.00 0.00 0.00 72 1013.1
20260508043016 50 357 0.0 0.0 0.00 0.00 0.00 72 1013.1
20260508042845 49 357 0.0 0.0 0.00 0.00 0.00 72 1013.1
20260508042656 49 357 0.0 0.0 0.00 0.00 0.00 72 1013.0
20260508042505 50 357 0.0 0.0 0.00 0.00 0.00 72 1013.0
20260508042331 50 357 0.0 0.0 0.00 0.00 0.00 71 1013.0
20260508042142 50 357 0.0 0.0 0.00 0.00 0.00 71 1013.0
20260508042000 50 357 0.0 0.0 0.00 0.00 0.00 71 1013.1
20260508041826 50 357 0.0 0.0 0.00 0.00 0.00 70 1013.1
20260508041636 50 357 0.0 0.0 0.00 0.00 0.00 70 1013.1
20260508041443 50 357 0.0 0.0 0.00 0.00 0.00 70 1013.1
20260508041310 50 357 0.0 0.0 0.00 0.00 0.00 70 1013.2
20260508041058 50 357 0.0 0.0 0.00 0.00 0.00 70 1013.2
20260508040925 50 357 0.0 0.0 0.00 0.00 0.00 70 1013.2
20260508040742 50 357 0.0 0.0 0.00 0.00 0.00 70 1013.3
20260508040532 50 357 0.0 0.0 0.00 0.00 0.00 70 1013.3
20260508040358 50 357 0.0 0.0 0.00 0.00 0.00 70 1013.3
20260508040225 50 357 0.0 0.0 0.00 0.00 0.00 70 1013.3
20260508040055 50 357 0.0 0.0 0.00 0.00 0.00 70 1013.3
20260508035756 50 357 0.0 0.0 0.00 0.00 0.00 71 1013.3
20260508035508 50 357 0.0 0.0 0.00 0.00 0.00 71 1013.3
20260508035218 50 357 0.0 0.0 0.00 0.00 0.00 71 1013.3
20260508034942 50 357 0.0 0.0 0.00 0.00 0.00 69 1013.4
20260508034659 50 357 0.0 0.0 0.00 0.00 0.00 69 1013.4
20260508034414 50 357 0.0 0.0 0.00 0.00 0.00 68 1013.5
20260508034137 50 357 0.0 0.0 0.00 0.00 0.00 68 1013.5
20260508033855 50 357 0.0 0.0 0.00 0.00 0.00 67 1013.5
20260508033612 50 357 0.0 0.0 0.00 0.00 0.00 67 1013.4
20260508033335 50 357 0.0 0.0 0.00 0.00 0.00 66 1013.4
20260508033052 51 357 0.0 0.0 0.00 0.00 0.00 66 1013.4
20260508032758 51 357 0.0 0.0 0.00 0.00 0.00 66 1013.2
20260508032513 51 357 0.0 0.0 0.00 0.00 0.00 65 1013.4
20260508032229 51 357 0.0 0.0 0.00 0.00 0.00 65 1013.3
20260508032001 51 357 0.0 0.0 0.00 0.00 0.00 65 1013.3
20260508031712 51 357 0.0 0.0 0.00 0.00 0.00 65 1013.3
20260508031435 51 357 0.0 0.0 0.00 0.00 0.00 65 1013.3
20260508031155 51 357 0.0 0.0 0.00 0.00 0.00 65 1013.3
20260508030906 51 357 0.0 0.0 0.00 0.00 0.00 64 1013.3
20260508030610 51 357 0.0 0.0 0.00 0.00 0.00 64 1013.2
20260508030326 51 357 0.0 0.0 0.00 0.00 0.00 65 1013.2
20260508030042 51 357 0.0 0.0 0.00 0.00 0.00 64 1013.2
20260508025812 51 357 0.0 0.0 0.00 0.00 0.00 64 1013.2
20260508025527 51 349 0.0 0.0 0.00 0.00 0.00 64 1013.4
20260508025242 51 349 0.0 0.0 0.00 0.00 0.00 64 1013.5
20260508025001 51 349 0.0 0.0 0.00 0.00 0.00 64 1013.6
20260508024716 51 349 0.0 0.0 0.00 0.00 0.00 64 1013.6
20260508024423 51 349 0.0 0.0 0.00 0.00 0.00 64 1013.6
20260508024142 51 349 0.0 0.0 0.00 0.00 0.00 64 1013.6
20260508023857 51 349 0.0 0.0 0.00 0.00 0.00 63 1013.4
20260508023605 51 349 0.0 0.0 0.00 0.00 0.00 63 1013.3
20260508023318 51 349 0.0 0.0 0.00 0.00 0.00 62 1013.3
20260508023050 51 349 0.0 0.0 0.00 0.00 0.00 62 1013.4
20260508022817 51 349 0.0 0.0 0.00 0.00 0.00 61 1013.2
20260508022532 51 349 0.0 0.0 0.00 0.00 0.00 61 1013.2
20260508022247 52 349 0.0 0.0 0.00 0.00 0.00 60 1013.2
20260508022018 52 349 0.0 0.0 0.00 0.00 0.00 59 1013.2
20260508021724 52 349 0.0 0.0 0.00 0.00 0.00 59 1013.2
20260508021456 52 349 0.0 0.0 0.00 0.00 0.00 59 1013.2
20260508021226 52 349 0.0 0.0 0.00 0.00 0.00 59 1013.2
20260508020941 52 349 0.0 0.0 0.00 0.00 0.00 58 1013.2
20260508020657 52 349 0.0 0.0 0.00 0.00 0.00 58 1013.2
20260508020403 53 349 0.0 0.0 0.00 0.00 0.00 57 1013.1
20260508020119 53 349 0.0 0.0 0.00 0.00 0.00 57 1013.2
20260508015820 53 349 0.0 0.0 0.00 0.00 0.00 56 1013.1
20260508015524 53 349 0.0 0.0 0.00 0.00 0.00 56 1013.1
20260508015221 53 349 0.0 0.0 0.00 0.00 0.00 56 1013.1
20260508014933 53 349 0.0 0.0 0.00 0.00 0.00 56 1013.1
20260508014647 53 349 1.0 0.0 0.00 0.00 0.00 56 1013.1
20260508014357 53 349 1.0 0.0 0.00 0.00 0.00 56 1013.0
20260508014130 53 349 1.0 0.0 0.00 0.00 0.00 56 1012.9
20260508013849 53 349 1.0 0.0 0.00 0.00 0.00 56 1013.0
20260508013609 53 8 0.0 0.0 0.00 0.00 0.00 57 1013.1
20260508013308 53 8 0.0 0.0 0.00 0.00 0.00 57 1013.3
20260508013020 53 8 0.0 0.0 0.00 0.00 0.00 57 1013.3
20260508012754 53 8 0.0 0.0 0.00 0.00 0.00 57 1013.2
20260508012509 53 8 0.0 0.0 0.00 0.00 0.00 57 1013.1
20260508012205 54 8 0.0 0.0 0.00 0.00 0.00 57 1013.1
20260508011920 54 8 0.0 0.0 0.00 0.00 0.00 56 1013.1
20260508011641 54 8 0.0 0.0 0.00 0.00 0.00 56 1013.1
20260508011334 54 8 0.0 0.0 0.00 0.00 0.00 56 1013.0
20260508011031 54 8 0.0 0.0 0.00 0.00 0.00 55 1013.1
20260508010725 54 8 0.0 0.0 0.00 0.00 0.00 54 1013.0
20260508010442 54 8 0.0 0.0 0.00 0.00 0.00 53 1013.0
20260508010216 54 8 0.0 0.0 0.00 0.00 0.00 53 1013.0
20260508005929 54 8 0.0 0.0 0.00 0.00 0.00 52 1013.0
20260508005627 54 28 0.0 0.0 0.00 0.00 0.00 54 1013.0
20260508005340 54 331 0.0 0.0 0.00 0.00 0.00 55 1013.0
20260508005024 54 354 0.0 0.0 0.00 0.00 0.00 54 1013.0
20260508004738 54 354 0.0 0.0 0.00 0.00 0.00 54 1013.0
20260508004506 54 354 0.0 0.0 0.00 0.00 0.00 53 1013.0
20260508004228 54 354 0.0 0.0 0.00 0.00 0.00 54 1013.0
20260508004001 55 354 0.0 0.0 0.00 0.00 0.00 53 1013.0
20260508003732 55 354 0.0 0.0 0.00 0.00 0.00 53 1012.9
20260508003441 55 354 0.0 0.0 0.00 0.00 0.00 53 1013.0
20260508003205 55 354 0.0 0.0 0.00 0.00 0.00 52 1013.0
20260508002928 55 354 0.0 0.0 0.00 0.00 0.00 52 1013.0
20260508002657 55 354 0.0 0.0 0.00 0.00 0.00 51 1012.8
20260508002350 55 354 0.0 0.0 0.00 0.00 0.00 51 1012.8
20260508002104 55 354 0.0 0.0 0.00 0.00 0.00 51 1012.8
20260508001838 55 354 0.0 0.0 0.00 0.00 0.00 51 1012.8
20260508001534 55 354 0.0 0.0 0.00 0.00 0.00 50 1012.8
20260508001308 55 354 0.0 0.0 0.00 0.00 0.00 50 1012.8
20260508001025 55 354 0.0 0.0 0.00 0.00 0.00 50 1012.8
20260508000742 55 355 0.0 0.0 0.00 0.00 0.00 50 1012.8
20260508000443 56 355 0.0 0.0 0.00 0.00 0.00 50 1012.8
20260508000140 56 355 0.0 0.0 0.00 0.00 0.00 49 1012.7
20260507235900 56 355 0.0 0.0 0.00 0.00 0.00 49 1012.7
20260507235554 56 355 1.0 0.0 0.00 0.00 0.00 48 1012.7
20260507235326 57 355 1.0 0.0 0.00 0.00 0.00 47 1012.6
20260507235042 57 353 1.0 0.0 0.00 0.00 0.00 47 1012.5
20260507234808 57 16 2.0 0.0 0.00 0.00 0.00 45 1012.6
20260507234517 58 349 1.0 0.0 0.00 0.00 0.00 45 1012.6
20260507234233 58 335 0.0 0.0 0.00 0.00 0.00 45 1012.5
20260507233939 58 352 0.0 0.0 0.00 0.00 0.00 44 1012.5
20260507233700 58 355 0.0 0.0 0.00 0.00 0.00 45 1012.5
20260507233432 58 18 1.0 0.0 0.00 0.00 0.00 46 1012.5
20260507233145 58 18 1.0 0.0 0.00 0.00 0.00 45 1012.5
20260507232849 58 34 1.0 0.0 0.00 0.00 0.00 44 1012.5
20260507232616 58 16 1.0 0.0 0.00 0.00 0.00 44 1012.5
20260507232309 58 26 1.0 0.0 0.00 0.00 0.00 44 1012.6
20260507232036 58 31 1.0 0.0 0.00 0.00 0.00 45 1012.6
20260507231742 58 44 1.0 0.0 0.00 0.00 0.00 44 1012.6
20260507231501 58 45 1.0 0.0 0.00 0.00 0.00 45 1012.6
20260507231223 58 360 2.0 0.0 0.00 0.00 0.00 45 1012.6
20260507230944 58 14 2.0 0.0 0.00 0.00 0.00 44 1012.5
20260507230653 58 33 2.0 0.0 0.00 0.00 0.00 43 1012.5
20260507230428 59 22 2.0 0.0 0.00 0.00 0.00 43 1012.5
20260507230146 59 36 2.0 0.0 0.00 0.00 0.00 43 1012.6
20260507225908 59 11 1.0 0.0 0.00 0.00 0.00 45 1012.6
20260507225623 59 46 2.0 0.0 0.00 0.00 0.00 44 1012.6
20260507225327 59 13 3.0 0.0 0.00 0.00 0.00 44 1012.7
20260507225025 59 34 3.0 0.0 0.00 0.00 0.00 43 1012.7
20260507224742 59 29 3.0 0.0 0.00 0.00 0.00 44 1012.7
20260507224509 59 20 4.0 0.0 0.00 0.00 0.00 44 1012.7
20260507224230 59 345 4.0 0.0 0.00 0.00 0.00 44 1012.7
20260507223921 59 338 3.0 0.0 0.00 0.00 0.00 42 1012.7
20260507223642 60 122 3.0 0.0 0.00 0.00 0.00 42 1012.7
20260507223405 60 357 1.0 0.0 0.00 0.00 0.00 42 1012.9
20260507223127 60 351 1.0 0.0 0.00 0.00 0.00 41 1012.9
20260507222833 60 315 0.0 0.0 0.00 0.00 0.00 42 1012.9
20260507222528 60 64 0.0 0.0 0.00 0.00 0.00 43 1012.8
20260507222241 60 21 0.0 0.0 0.00 0.00 0.00 44 1012.8
20260507221949 59 21 0.0 0.0 0.00 0.00 0.00 43 1012.8
20260507221712 59 19 0.0 0.0 0.00 0.00 0.00 44 1012.9
20260507221441 58 19 0.0 0.0 0.00 0.00 0.00 44 1012.9
20260507221134 58 20 0.0 0.0 0.00 0.00 0.00 43 1012.9
20260507220908 58 36 0.0 0.0 0.00 0.00 0.00 44 1012.9
20260507220632 58 39 0.0 0.0 0.00 0.00 0.00 45 1012.9
20260507220333 58 35 1.0 0.0 0.00 0.00 0.00 43 1012.9
20260507220054 58 12 1.0 0.0 0.00 0.00 0.00 43 1012.9
20260507215808 58 7 1.0 0.0 0.00 0.00 0.00 43 1013.0
20260507215456 58 6 1.0 0.0 0.00 0.00 0.00 43 1013.0
20260507215207 58 24 0.0 0.0 0.00 0.00 0.00 43 1012.9
20260507214941 58 14 0.0 0.0 0.00 0.00 0.00 42 1012.9
20260507214655 59 33 1.0 0.0 0.00 0.00 0.00 43 1012.9
20260507214415 59 32 1.0 0.0 0.00 0.00 0.00 42 1012.8
20260507214059 59 24 2.0 0.0 0.00 0.00 0.00 42 1012.8
20260507213815 59 20 3.0 0.0 0.00 0.00 0.00 41 1012.7
20260507213516 59 24 4.0 0.0 0.00 0.00 0.00 42 1012.8
20260507213201 59 130 5.0 0.0 0.00 0.00 0.00 42 1012.8
20260507212922 59 332 5.0 0.0 0.00 0.00 0.00 43 1012.7
20260507212652 59 41 5.0 0.0 0.00 0.00 0.00 42 1012.8
20260507212411 59 37 2.0 0.0 0.00 0.00 0.00 43 1012.8
20260507212123 58 23 2.0 0.0 0.00 0.00 0.00 43 1012.7
20260507211839 58 60 1.0 0.0 0.00 0.00 0.00 43 1012.7
20260507211557 58 24 0.0 0.0 0.00 0.00 0.00 44 1012.7
20260507211317 58 161 0.0 0.0 0.00 0.00 0.00 46 1012.7
20260507211034 58 182 0.0 0.0 0.00 0.00 0.00 45 1012.7
20260507210740 58 182 1.0 0.0 0.00 0.00 0.00 44 1012.7
20260507210455 58 164 1.0 0.0 0.00 0.00 0.00 44 1012.6
20260507210128 58 165 1.0 0.0 0.00 0.00 0.00 44 1012.7
20260507205846 59 46 0.0 0.0 0.00 0.00 0.00 43 1012.6
20260507205616 59 14 0.0 0.0 0.00 0.00 0.00 43 1012.6
20260507205307 60 58 1.0 0.0 0.00 0.00 0.00 43 1012.6
20260507204950 60 30 1.0 0.0 0.00 0.00 0.00 43 1012.6
20260507204716 59 31 1.0 0.0 0.00 0.00 0.00 48 1012.6
20260507204430 59 114 1.0 0.0 0.00 0.00 0.00 44 1012.5
20260507204155 59 54 1.0 0.0 0.00 0.00 0.00 43 1012.6
20260507203909 59 41 1.0 0.0 0.00 0.00 0.00 43 1012.7
20260507203628 59 159 1.0 0.0 0.00 0.00 0.00 43 1012.6
20260507203343 59 169 1.0 0.0 0.00 0.00 0.00 45 1012.6
20260507203100 59 7 0.0 0.0 0.00 0.00 0.00 44 1012.7
20260507202818 59 278 0.0 0.0 0.00 0.00 0.00 46 1012.6
20260507202524 60 142 0.0 0.0 0.00 0.00 0.00 43 1012.5
20260507202238 59 36 0.0 0.0 0.00 0.00 0.00 45 1012.6
20260507201946 59 34 0.0 0.0 0.00 0.00 0.00 43 1012.7
20260507201709 60 147 0.0 0.0 0.00 0.00 0.00 45 1012.5
20260507201353 60 26 0.0 0.0 0.00 0.00 0.00 42 1012.6
20260507201112 60 27 1.0 0.0 0.00 0.00 0.00 45 1012.6
20260507200832 60 130 1.0 0.0 0.00 0.00 0.00 46 1012.7
20260507200531 59 73 1.0 0.0 0.00 0.00 0.00 46 1012.8
20260507200237 59 69 1.0 0.0 0.00 0.00 0.00 46 1012.9
20260507195959 59 14 0.0 0.0 0.00 0.00 0.00 47 1012.9
20260507195720 59 85 0.0 0.0 0.00 0.00 0.00 45 1012.8
20260507195439 58 49 0.0 0.0 0.00 0.00 0.00 46 1012.8
20260507195208 58 24 1.0 0.0 0.00 0.00 0.00 45 1012.8
20260507194920 58 23 1.0 0.0 0.00 0.00 0.00 43 1012.9
20260507194635 58 161 2.0 0.0 0.00 0.00 0.00 47 1012.8
20260507194403 57 29 2.0 0.0 0.00 0.00 0.00 46 1012.8
20260507194130 57 22 2.0 0.0 0.00 0.00 0.00 47 1012.8
20260507193847 58 116 2.0 0.0 0.00 0.00 0.00 45 1012.9
20260507193536 58 68 1.0 0.0 0.00 0.00 0.00 47 1012.9
20260507193305 58 53 1.0 0.0 0.00 0.00 0.00 45 1012.9
20260507193018 58 157 1.0 0.0 0.00 0.00 0.00 50 1013.0
20260507192728 57 358 0.0 0.0 0.00 0.00 0.00 47 1013.0
20260507192444 57 131 0.0 0.0 0.00 0.00 0.00 49 1013.1
20260507192155 56 24 1.0 0.0 0.00 0.00 0.00 49 1013.1
20260507191920 56 27 1.0 0.0 0.00 0.00 0.00 49 1013.0
20260507191641 57 33 1.0 0.0 0.00 0.00 0.00 48 1013.0
20260507191355 57 23 1.0 0.0 0.00 0.00 0.00 47 1012.9
20260507191054 57 91 2.0 0.0 0.00 0.00 0.00 47 1013.0
20260507190740 57 57 2.0 0.0 0.00 0.00 0.00 49 1013.1
20260507190456 57 98 3.0 0.0 0.00 0.00 0.00 48 1013.0
20260507190211 57 355 3.0 0.0 0.00 0.00 0.00 50 1013.1
20260507185925 58 18 2.0 0.0 0.00 0.00 0.00 48 1013.1
20260507185620 58 31 1.0 0.0 0.00 0.00 0.00 47 1013.1
20260507185312 58 37 1.0 0.0 0.00 0.00 0.00 49 1013.1